Powrót do katalogu

STARLINK-35908

AktywnyŁącznośćVLEO
NORAD 66639·PAYLOAD·🇺🇸 United States

Wystrzelony Nov 23, 2025 z Vandenberg Space Force Base

Loading…

Następne Przeloty (najbliższe 24 godziny)

TLE

ŚwieżeSource: CelesTrak SupGP

Epoka: Sep 15, 2026, 03:30 UTC

1 66639C 25271Y   26258.14631944  .00060033  00000+0  17717-2 0  2586
2 66639  53.1583 338.8357 0001162 106.4904  76.6729 15.34395897    10

Śledź STARLINK-35908 w czasie rzeczywistym z AllMySat

Download on the App Store